YO4ISC-13 Weather Reports


time (UTC)temp
C
wind
direction
speed
KPH
gust
KPH
rain 1hr
cm
rain 24hr
cm
rain mn
cm
humidity
%
barometer
mb
20260508083001 12 172 12.9 16.1 0.00 0.00 0.00 86 1019.0
20260508082002 13 160 16.1 22.5 0.00 0.00 0.00 85 1019.0
20260508081001 13 167 14.5 22.5 0.00 0.00 0.00 85 1019.0
20260508080002 13 166 14.5 19.3 0.00 0.00 0.00 86 1019.0
20260508075002 12 167 16.1 19.3 0.00 0.00 0.00 86 1019.0
20260508074001 13 159 14.5 20.9 0.00 0.00 0.00 85 1019.0
20260508073002 12 170 16.1 17.7 0.00 0.00 0.00 87 1019.0
20260508072001 12 177 17.7 17.7 0.00 0.00 0.00 87 1019.0
20260508071001 12 191 11.3 16.1 0.00 0.00 0.00 87 1019.0
20260508070002 12 192 12.9 14.5 0.00 0.00 0.00 88 1019.0
20260508065001 12 162 12.9 16.1 0.00 0.00 0.00 88 1019.0
20260508064002 12 160 9.7 11.3 0.00 0.00 0.00 89 1019.0
20260508063002 12 172 19.3 19.3 0.00 0.00 0.00 89 1019.0
20260508062001 12 167 12.9 17.7 0.00 0.00 0.00 89 1019.0
20260508061002 12 180 12.9 14.5 0.00 0.00 0.00 89 1019.0
20260508060002 12 192 9.7 11.3 0.00 0.00 0.00 91 1019.0
20260508055002 12 175 9.7 12.9 0.00 0.00 0.00 90 1019.0
20260508054002 12 159 12.9 14.5 0.00 0.00 0.00 90 1019.0
20260508053002 12 170 8.0 17.7 0.00 0.00 0.00 90 1019.0
20260508052002 12 176 8.0 11.3 0.00 0.00 0.00 90 1019.0
20260508051001 12 175 11.3 14.5 0.00 0.00 0.00 90 1019.0
20260508050001 12 175 8.0 9.7 0.00 0.00 0.00 91 1019.0
20260508044001 12 174 6.4 9.7 0.00 0.00 0.00 92 1019.0
20260508043002 12 177 16.1 17.7 0.00 0.00 0.00 92 1019.0
20260508042001 12 171 11.3 14.5 0.00 0.00 0.00 92 1019.0
20260508041002 12 174 14.5 17.7 0.00 0.00 0.00 93 1018.0
20260508040001 12 166 11.3 16.1 0.00 0.00 0.00 93 1019.0
20260508035002 12 165 14.5 16.1 0.00 0.00 0.00 94 1018.0
20260508034001 12 169 9.7 11.3 0.00 0.00 0.00 94 1019.0
20260508033001 12 177 9.7 9.7 0.00 0.00 0.00 94 1019.0
20260508032001 12 163 11.3 14.5 0.00 0.00 0.00 94 1018.0
20260508031001 11 161 8.0 9.7 0.00 0.00 0.00 94 1018.0
20260508030002 11 175 8.0 12.9 0.00 0.00 0.00 94 1018.0
20260508025001 11 161 9.7 11.3 0.00 0.00 0.00 93 1018.0
20260508024002 11 170 9.7 11.3 0.00 0.00 0.00 93 1018.0
20260508023001 11 182 8.0 8.0 0.00 0.00 0.00 93 1018.0
20260508022002 11 174 11.3 11.3 0.00 0.00 0.00 92 1018.0
20260508021001 11 177 11.3 12.9 0.00 0.00 0.00 92 1018.0
20260508020002 11 183 8.0 11.3 0.00 0.00 0.00 91 1018.0
20260508015001 11 178 6.4 11.3 0.00 0.00 0.00 91 1018.0
20260508014002 11 175 9.7 11.3 0.00 0.00 0.00 91 1018.0
20260508013001 11 177 6.4 8.0 0.00 0.00 0.00 91 1018.0
20260508012002 11 170 17.7 20.9 0.00 0.00 0.00 91 1018.0
20260508011001 11 172 9.7 9.7 0.00 0.00 0.00 92 1018.0
20260508010002 11 175 9.7 11.3 0.00 0.00 0.00 91 1018.0
20260508005001 11 173 6.4 11.3 0.00 0.00 0.00 91 1018.0
20260508004002 11 174 9.7 9.7 0.00 0.00 0.00 91 1018.0
20260508003001 11 172 6.4 8.0 0.00 0.00 0.00 91 1018.0
20260508002002 11 172 9.7 16.1 0.00 0.00 0.00 91 1018.0
20260508001001 11 162 12.9 14.5 0.00 0.00 0.00 92 1018.0
20260508000002 11 169 14.5 16.1 0.00 0.00 0.00 91 1018.0
20260507235001 11 170 8.0 9.7 0.00 0.00 0.00 91 1019.0
20260507234002 11 168 11.3 14.5 0.00 0.00 0.00 91 1019.0
20260507233001 11 165 9.7 14.5 0.00 0.00 0.00 91 1019.0
20260507232002 11 172 9.7 9.7 0.00 0.00 0.00 90 1019.0
20260507231001 11 175 8.0 9.7 0.00 0.00 0.00 89 1019.0
20260507230002 12 198 6.4 8.0 0.00 0.00 0.00 88 1019.0
20260507225001 12 181 9.7 9.7 0.00 0.00 0.00 88 1019.0
20260507224002 12 177 6.4 9.7 0.00 0.00 0.00 89 1019.0
20260507223001 12 182 9.7 11.3 0.00 0.00 0.00 88 1019.0
20260507222002 12 188 6.4 9.7 0.00 0.00 0.00 88 1019.0
20260507221001 12 175 11.3 14.5 0.00 0.00 0.00 89 1020.0
20260507220002 12 200 9.7 9.7 0.00 0.00 0.00 88 1020.0
20260507215001 12 170 11.3 14.5 0.00 0.00 0.00 88 1019.0
20260507214002 12 173 16.1 17.7 0.00 0.00 0.00 88 1019.0
20260507213001 12 186 20.9 22.5 0.00 0.00 0.00 88 1019.0
20260507212001 12 175 9.7 11.3 0.00 0.00 0.00 89 1019.0
20260507211002 12 179 6.4 9.7 0.00 0.00 0.00 88 1019.0
20260507210001 12 170 12.9 17.7 0.00 0.00 0.00 88 1019.0
20260507205002 12 170 16.1 16.1 0.00 0.00 0.00 88 1019.0
20260507204001 12 174 12.9 14.5 0.00 0.00 0.00 88 1019.0
20260507203002 12 174 11.3 17.7 0.00 0.00 0.00 87 1019.0
20260507202001 12 176 9.7 12.9 0.00 0.00 0.00 87 1019.0
20260507201002 12 180 9.7 11.3 0.00 0.00 0.00 88 1019.0
20260507200001 12 174 8.0 9.7 0.00 0.00 0.00 87 1019.0
20260507195002 12 182 8.0 12.9 0.00 0.00 0.00 88 1019.0
20260507194001 12 164 9.7 14.5 0.00 0.00 0.00 88 1020.0
20260507193002 12 173 16.1 17.7 0.00 0.00 0.00 87 1019.0
20260507192001 12 179 11.3 14.5 0.00 0.00 0.00 88 1020.0
20260507191002 12 173 11.3 12.9 0.00 0.00 0.00 87 1019.0
20260507190002 12 183 17.7 22.5 0.00 0.00 0.00 87 1020.0
20260507185002 12 194 8.0 12.9 0.00 0.00 0.00 88 1019.0
20260507184001 12 177 8.0 8.0 0.00 0.00 0.00 88 1019.0
20260507183002 12 174 14.5 17.7 0.00 0.00 0.00 88 1019.0
20260507182001 12 180 8.0 11.3 0.00 0.00 0.00 89 1019.0
20260507181001 12 183 19.3 22.5 0.00 0.00 0.00 88 1019.0
20260507180002 12 174 8.0 9.7 0.00 0.00 0.00 89 1019.0
20260507175001 12 172 19.3 19.3 0.00 0.00 0.00 89 1019.0
20260507174002 12 173 12.9 12.9 0.00 0.00 0.00 89 1019.0
20260507173002 12 161 11.3 16.1 0.00 0.00 0.00 89 1019.0
20260507172001 12 171 12.9 14.5 0.00 0.00 0.00 89 1019.0
20260507171002 12 169 14.5 19.3 0.00 0.00 0.00 89 1019.0
20260507170001 12 168 9.7 11.3 0.00 0.00 0.00 90 1019.0
20260507165001 12 178 14.5 17.7 0.00 0.00 0.00 89 1019.0
20260507164001 12 186 8.0 9.7 0.00 0.00 0.00 89 1019.0
20260507163001 12 168 17.7 19.3 0.00 0.00 0.00 89 1019.0
20260507162002 13 158 17.7 17.7 0.00 0.00 0.00 87 1019.0
20260507161001 12 171 11.3 16.1 0.00 0.00 0.00 87 1019.0
20260507160002 12 173 12.9 16.1 0.00 0.00 0.00 88 1019.0
20260507155001 13 171 9.7 12.9 0.00 0.00 0.00 86 1019.0
20260507154002 13 176 11.3 19.3 0.00 0.00 0.00 84 1019.0
20260507153001 13 176 17.7 20.9 0.00 0.00 0.00 84 1019.0
20260507152002 13 171 16.1 20.9 0.00 0.00 0.00 83 1019.0
20260507151001 13 172 8.0 14.5 0.00 0.00 0.00 84 1019.0
20260507150002 13 174 14.5 14.5 0.00 0.00 0.00 84 1019.0
20260507145001 13 167 17.7 19.3 0.00 0.00 0.00 83 1019.0
20260507144001 13 181 9.7 11.3 0.00 0.00 0.00 83 1020.0
20260507143002 13 182 11.3 16.1 0.00 0.00 0.00 80 1020.0
20260507142001 13 175 12.9 14.5 0.00 0.00 0.00 80 1020.0
20260507141002 13 183 16.1 22.5 0.00 0.00 0.00 79 1020.0
20260507140001 14 175 9.7 11.3 0.00 0.00 0.00 79 1020.0
20260507135002 13 163 14.5 19.3 0.00 0.00 0.00 80 1020.0
20260507134001 13 184 20.9 27.4 0.00 0.00 0.00 80 1020.0
20260507133002 13 164 20.9 25.7 0.00 0.00 0.00 80 1020.0
20260507132001 13 171 22.5 22.5 0.00 0.00 0.00 81 1020.0
20260507131002 14 159 12.9 22.5 0.00 0.00 0.00 80 1020.0
20260507130001 13 169 14.5 20.9 0.00 0.00 0.00 81 1020.0
20260507125002 14 167 14.5 22.5 0.00 0.00 0.00 80 1020.0
20260507124001 13 171 20.9 25.7 0.00 0.00 0.00 80 1020.0
20260507123002 14 173 25.7 29.0 0.00 0.00 0.00 79 1020.0
20260507122001 13 172 27.4 30.6 0.00 0.00 0.00 81 1020.0
20260507121001 14 169 17.7 20.9 0.00 0.00 0.00 78 1020.0
20260507120002 14 181 24.1 27.4 0.00 0.00 0.00 79 1020.0
20260507115002 14 167 24.1 25.7 0.00 0.00 0.00 78 1020.0
20260507114001 13 183 24.1 25.7 0.00 0.00 0.00 80 1021.0
20260507113002 14 181 24.1 25.7 0.00 0.00 0.00 80 1021.0
20260507112001 14 171 20.9 20.9 0.00 0.00 0.00 80 1021.0
20260507111001 14 175 9.7 20.9 0.00 0.00 0.00 79 1020.0
20260507110002 13 170 19.3 27.4 0.00 0.00 0.00 78 1020.0
20260507105001 14 168 16.1 27.4 0.00 0.00 0.00 77 1021.0
20260507104002 14 171 14.5 19.3 0.00 0.00 0.00 78 1021.0
20260507103002 13 174 20.9 24.1 0.00 0.00 0.00 79 1021.0
20260507102002 13 171 20.9 27.4 0.00 0.00 0.00 78 1021.0
20260507101001 13 167 27.4 30.6 0.00 0.00 0.00 78 1020.0
20260507100002 13 172 24.1 29.0 0.00 0.00 0.00 77 1020.0
20260507095001 13 172 24.1 27.4 0.00 0.00 0.00 78 1020.0
20260507094002 13 166 20.9 24.1 0.00 0.00 0.00 79 1021.0
20260507093002 13 167 14.5 19.3 0.00 0.00 0.00 78 1021.0
20260507092002 13 146 22.5 25.7 0.00 0.00 0.00 79 1021.0
20260507091001 13 159 19.3 27.4 0.00 0.00 0.00 78 1021.0
20260507090006 13 172 19.3 22.5 0.00 0.00 0.00 79 1021.0
20260507085001 13 168 19.3 22.5 0.00 0.00 0.00 79 1021.0
20260507084001 13 166 19.3 25.7 0.00 0.00 0.00 79 1021.0